| time (UTC) | temp F | wind direction | speed knots | gust knots | rain 1hr in | rain 24hr in | rain mn in | humidity % | barometer mb |
| 20260508024545 | 70 | 332 | 1.7 | 5.2 | 0.00 | 0.00 | 0.00 | 24 | 1013.2 |
| 20260508023033 | 72 | 294 | 3.5 | 7.0 | 0.00 | 0.00 | 0.00 | 22 | 1013.0 |
| 20260508021529 | 73 | 303 | 3.5 | 11.3 | 0.00 | 0.00 | 0.00 | 21 | 1013.1 |
| 20260508020026 | 73 | 298 | 5.2 | 9.6 | 0.00 | 0.00 | 0.00 | 20 | 1013.1 |
| 20260508014528 | 73 | 300 | 7.0 | 10.4 | 0.00 | 0.00 | 0.00 | 19 | 1013.0 |
| 20260508013019 | 74 | 279 | 6.1 | 10.4 | 0.00 | 0.00 | 0.00 | 19 | 1012.9 |
| 20260508011517 | 75 | 305 | 6.1 | 12.2 | 0.00 | 0.00 | 0.00 | 18 | 1012.9 |
| 20260508010020 | 75 | 316 | 7.0 | 13.0 | 0.00 | 0.00 | 0.00 | 19 | 1012.9 |
| 20260508004513 | 75 | 313 | 6.1 | 10.4 | 0.00 | 0.00 | 0.00 | 19 | 1012.9 |
| 20260508003103 | 75 | 306 | 7.0 | 12.2 | 0.00 | 0.00 | 0.00 | 18 | 1012.9 |
| 20260508001554 | 76 | 328 | 7.0 | 12.2 | 0.00 | 0.00 | 0.00 | 18 | 1012.9 |
| 20260508000052 | 76 | 301 | 7.8 | 11.3 | 0.00 | 0.00 | 0.00 | 17 | 1012.9 |
| 20260507234552 | 76 | 345 | 7.8 | 15.6 | 0.00 | 0.00 | 0.00 | 17 | 1012.8 |
| 20260507233050 | 76 | 323 | 6.1 | 12.2 | 0.00 | 0.00 | 0.00 | 17 | 1013.0 |
| 20260507231554 | 76 | 5 | 0.0 | 8.7 | 0.00 | 0.00 | 0.00 | 18 | 1013.1 |
| 20260507230051 | 76 | 336 | 7.0 | 20.9 | 0.00 | 0.00 | 0.00 | 17 | 1013.3 |
| 20260507224545 | 75 | 324 | 4.3 | 9.6 | 0.00 | 0.00 | 0.00 | 18 | 1013.5 |
| 20260507223026 | 76 | 284 | 2.6 | 7.8 | 0.00 | 0.00 | 0.00 | 17 | 1013.7 |
| 20260507221533 | 74 | 294 | 5.2 | 11.3 | 0.00 | 0.00 | 0.00 | 18 | 1013.9 |
| 20260507220016 | 74 | 294 | 5.2 | 13.0 | 0.00 | 0.00 | 0.00 | 18 | 1014.1 |
| 20260507214512 | 74 | 341 | 4.3 | 11.3 | 0.00 | 0.00 | 0.00 | 21 | 1014.1 |
| 20260507213008 | 74 | 327 | 6.1 | 9.6 | 0.00 | 0.00 | 0.00 | 20 | 1014.2 |
| 20260507211512 | 74 | 293 | 5.2 | 12.2 | 0.00 | 0.00 | 0.00 | 19 | 1014.5 |
| 20260507210006 | 73 | 302 | 7.0 | 11.3 | 0.00 | 0.00 | 0.00 | 16 | 1014.6 |
| 20260507204504 | 72 | 292 | 7.8 | 14.8 | 0.00 | 0.00 | 0.00 | 16 | 1014.8 |
| 20260507203003 | 72 | 262 | 7.0 | 11.3 | 0.00 | 0.00 | 0.00 | 15 | 1015.0 |
| 20260507201504 | 71 | 360 | 3.5 | 13.0 | 0.00 | 0.00 | 0.00 | 18 | 1015.0 |
| 20260507200105 | 71 | 251 | 5.2 | 9.6 | 0.00 | 0.00 | 0.00 | 20 | 1015.2 |
| 20260507194550 | 70 | 238 | 2.6 | 12.2 | 0.00 | 0.00 | 0.00 | 23 | 1015.4 |
| 20260507193051 | 69 | 313 | 7.0 | 13.0 | 0.00 | 0.00 | 0.00 | 25 | 1015.5 |
| 20260507191549 | 68 | 301 | 4.3 | 13.0 | 0.00 | 0.00 | 0.00 | 26 | 1015.6 |
| 20260507190056 | 69 | 319 | 5.2 | 10.4 | 0.00 | 0.00 | 0.00 | 25 | 1015.6 |
| 20260507184556 | 67 | 329 | 8.7 | 12.2 | 0.00 | 0.00 | 0.00 | 29 | 1015.8 |
| 20260507183049 | 67 | 294 | 6.1 | 17.4 | 0.00 | 0.00 | 0.00 | 25 | 1015.8 |
| 20260507181545 | 67 | 285 | 3.5 | 7.0 | 0.00 | 0.00 | 0.00 | 27 | 1015.9 |
| 20260507180034 | 67 | 344 | 3.5 | 7.8 | 0.00 | 0.00 | 0.00 | 27 | 1015.9 |
| 20260507174528 | 66 | 281 | 4.3 | 11.3 | 0.00 | 0.00 | 0.00 | 27 | 1016.0 |
| 20260507173028 | 65 | 225 | 3.5 | 9.6 | 0.00 | 0.00 | 0.00 | 26 | 1016.1 |
| 20260507171514 | 65 | 282 | 4.3 | 9.6 | 0.00 | 0.00 | 0.00 | 32 | 1016.0 |
| 20260507170015 | 65 | 303 | 4.3 | 9.6 | 0.00 | 0.00 | 0.00 | 32 | 1016.0 |
| 20260507164513 | 63 | 305 | 5.2 | 10.4 | 0.00 | 0.00 | 0.00 | 42 | 1016.0 |
| 20260507163014 | 62 | 338 | 7.0 | 9.6 | 0.00 | 0.00 | 0.00 | 50 | 1016.1 |
| 20260507161511 | 61 | 59 | 2.6 | 7.0 | 0.00 | 0.00 | 0.00 | 54 | 1016.2 |
| 20260507160011 | 60 | 333 | 3.5 | 8.7 | 0.00 | 0.00 | 0.00 | 51 | 1016.3 |
| 20260507154510 | 59 | 78 | 2.6 | 5.2 | 0.00 | 0.00 | 0.00 | 54 | 1016.5 |
| 20260507153106 | 58 | 48 | 0.9 | 3.5 | 0.00 | 0.00 | 0.00 | 58 | 1016.6 |
| 20260507151558 | 57 | 60 | 0.0 | 0.9 | 0.00 | 0.00 | 0.00 | 59 | 1016.6 |
| 20260507150057 | 54 | 61 | 0.0 | 4.3 | 0.00 | 0.00 | 0.00 | 61 | 1016.7 |
| 20260507144557 | 53 | 161 | 4.3 | 9.6 | 0.00 | 0.00 | 0.00 | 63 | 1016.7 |
| 20260507143101 | 51 | 163 | 4.3 | 8.7 | 0.00 | 0.00 | 0.00 | 66 | 1016.7 |
| 20260507141556 | 49 | 157 | 1.7 | 8.7 | 0.00 | 0.00 | 0.00 | 72 | 1016.6 |
| 20260507140054 | 47 | 132 | 0.0 | 3.5 | 0.00 | 0.00 | 0.00 | 74 | 1016.7 |
| 20260507134557 | 45 | 130 | 0.9 | 7.0 | 0.00 | 0.00 | 0.00 | 76 | 1016.6 |
| 20260507133055 | 44 | 153 | 4.3 | 7.0 | 0.00 | 0.00 | 0.00 | 77 | 1016.5 |
| 20260507131547 | 44 | 190 | 4.3 | 6.1 | 0.00 | 0.00 | 0.00 | 78 | 1016.5 |
| 20260507130045 | 44 | 165 | 0.9 | 5.2 | 0.00 | 0.00 | 0.00 | 78 | 1016.5 |
| 20260507124534 | 44 | 177 | 4.3 | 7.0 | 0.00 | 0.00 | 0.00 | 78 | 1016.4 |
| 20260507123031 | 45 | 166 | 3.5 | 4.3 | 0.00 | 0.00 | 0.00 | 75 | 1016.3 |
| 20260507121526 | 46 | 166 | 2.6 | 6.1 | 0.00 | 0.00 | 0.00 | 75 | 1016.4 |
| 20260507120027 | 47 | 165 | 3.5 | 6.1 | 0.00 | 0.00 | 0.00 | 73 | 1016.3 |
| 20260507114521 | 47 | 157 | 2.6 | 5.2 | 0.00 | 0.00 | 0.00 | 72 | 1016.3 |
| 20260507113100 | 48 | 174 | 3.5 | 6.1 | 0.00 | 0.00 | 0.00 | 71 | 1016.3 |
| 20260507111601 | 48 | 159 | 0.9 | 7.8 | 0.00 | 0.00 | 0.00 | 71 | 1016.3 |
| 20260507110042 | 49 | 146 | 2.6 | 6.1 | 0.00 | 0.00 | 0.00 | 69 | 1016.1 |
| 20260507104541 | 49 | 159 | 3.5 | 7.8 | 0.00 | 0.00 | 0.00 | 70 | 1016.1 |
| 20260507103038 | 49 | 165 | 4.3 | 8.7 | 0.00 | 0.00 | 0.00 | 69 | 1016.1 |
| 20260507101537 | 49 | 181 | 5.2 | 8.7 | 0.00 | 0.00 | 0.00 | 68 | 1016.1 |
| 20260507100035 | 50 | 184 | 5.2 | 9.6 | 0.00 | 0.00 | 0.00 | 68 | 1016.2 |
| 20260507094530 | 51 | 182 | 0.9 | 4.3 | 0.00 | 0.00 | 0.00 | 67 | 1016.2 |
| 20260507093027 | 51 | 149 | 3.5 | 8.7 | 0.00 | 0.00 | 0.00 | 66 | 1016.2 |
| 20260507091529 | 52 | 157 | 2.6 | 7.0 | 0.00 | 0.00 | 0.00 | 64 | 1016.2 |
| 20260507090008 | 53 | 157 | 4.3 | 7.0 | 0.00 | 0.00 | 0.00 | 64 | 1016.3 |
| 20260507084602 | 53 | 157 | 3.5 | 7.0 | 0.00 | 0.00 | 0.00 | 64 | 1016.2 |
| 20260507083047 | 53 | 154 | 1.7 | 3.5 | 0.00 | 0.00 | 0.00 | 64 | 1016.3 |
| 20260507081545 | 53 | 274 | 0.0 | 3.5 | 0.00 | 0.00 | 0.00 | 63 | 1016.4 |
| 20260507080045 | 54 | 274 | 0.9 | 2.6 | 0.00 | 0.00 | 0.00 | 64 | 1016.4 |
| 20260507074538 | 54 | 274 | 0.0 | 2.6 | 0.00 | 0.00 | 0.00 | 62 | 1016.4 |
| 20260507073035 | 55 | 281 | 0.9 | 1.7 | 0.00 | 0.00 | 0.00 | 62 | 1016.4 |
| 20260507071531 | 56 | 281 | 0.9 | 3.5 | 0.00 | 0.00 | 0.00 | 60 | 1016.3 |
| 20260507070031 | 57 | 286 | 0.0 | 2.6 | 0.00 | 0.00 | 0.00 | 57 | 1016.4 |
| 20260507064525 | 58 | 286 | 0.0 | 2.6 | 0.00 | 0.00 | 0.00 | 57 | 1016.6 |
| 20260507063010 | 59 | 287 | 0.0 | 2.6 | 0.00 | 0.00 | 0.00 | 55 | 1016.5 |
| 20260507061506 | 60 | 287 | 0.0 | 1.7 | 0.00 | 0.00 | 0.00 | 53 | 1016.6 |
| 20260507060003 | 61 | 287 | 0.9 | 3.5 | 0.00 | 0.00 | 0.00 | 52 | 1016.7 |
| 20260507054600 | 62 | 286 | 1.7 | 8.7 | 0.00 | 0.00 | 0.00 | 51 | 1016.7 |
| 20260507053108 | 62 | 285 | 2.6 | 7.0 | 0.00 | 0.00 | 0.00 | 48 | 1016.7 |
| 20260507051552 | 63 | 312 | 2.6 | 7.0 | 0.00 | 0.00 | 0.00 | 43 | 1016.7 |
| 20260507050049 | 64 | 310 | 2.6 | 10.4 | 0.00 | 0.00 | 0.00 | 40 | 1016.6 |
| 20260507044545 | 65 | 333 | 2.6 | 9.6 | 0.00 | 0.00 | 0.00 | 39 | 1016.5 |
| 20260507043043 | 66 | 262 | 5.2 | 12.2 | 0.00 | 0.00 | 0.00 | 38 | 1016.4 |
| 20260507041523 | 66 | 332 | 4.3 | 12.2 | 0.00 | 0.00 | 0.00 | 36 | 1016.3 |
| 20260507040019 | 67 | 312 | 6.1 | 13.0 | 0.00 | 0.00 | 0.00 | 34 | 1016.2 |
| 20260507034559 | 67 | 302 | 8.7 | 14.8 | 0.00 | 0.00 | 0.00 | 31 | 1016.0 |
| 20260507033100 | 68 | 297 | 5.2 | 12.2 | 0.00 | 0.00 | 0.00 | 30 | 1016.0 |
| 20260507031539 | 69 | 303 | 5.2 | 16.5 | 0.00 | 0.00 | 0.00 | 28 | 1015.9 |
| 20260507030036 | 69 | 286 | 7.0 | 12.2 | 0.00 | 0.00 | 0.00 | 29 | 1015.9 |